Weather History for Bastrop, LA

Change the Weather History Date:

Monday, March 4, 2013

  Actual Average (KMLU) Record (KMLU)
Temperature  
Mean Temperature 60 °F 55 °F  
Max Temperature 75 °F 66 °F 85 °F (1938)
Min Temperature 44 °F 44 °F 18 °F (2002)
Degree Days  
Heating Degree Days 6 11  
Month to date heating degree days 44  
Since 1 July heating degree days 1938  
Cooling Degree Days 0 1  
Month to date cooling degree days 2  
Year to date cooling degree days 13  
Growing Degree Days 10 (Base 50)    
Moisture  
Dew Point 46 °F    
Average Humidity 59    
Maximum Humidity 78    
Minimum Humidity 40    
Precipitation  
Precipitation 0.00 in 0.17 in 2.55 in (1992)
Month to date precipitation 0.67  
Year to date precipitation 10.31  
Snow  
Snow 0.00 in - - ()
Month to date snowfall  
Since 1 July snowfall  
Snow Depth -    
Sea Level Pressure  
Sea Level Pressure 29.88 in    
Wind  
Wind Speed 7 mph (South)    
Max Wind Speed 23 mph    
Max Gust Speed 32 mph    
Visibility 10 miles    
Events      
T = Trace of Precipitation, MM = Missing Value Source: NWS Daily Summary

Daily Weather History Graph

Daily Weather History Graph

Search for Another Location

Airport:

Trip Planner

Search our weather history database for the weather conditions in past years. The results will help you decide how hot, cold, wet, or windy it might be!

Date:

Astronomy

Mar. 04, 2013 Rise Set
Actual Time 6:31 AM CST 6:07 PM CST
Civil Twilight 6:06 AM CST 6:32 PM CST
Nautical Twilight 5:38 AM CST 7:00 PM CST
Astronomical Twilight 5:09 AM CST 7:29 PM CST
Moon 12:28 AM CST (3/4) 11:03 AM CST (3/4)
Length of Visible Light 12h 25m
Length of Day
11h 36m
Waning Gibbous, 52% of the Moon is Illuminated
Mar 4
Waning Gibbous
Mar 4
Last Quarter
Mar 11
New
Mar 19
First Quarter
Mar 27
Full

Hourly Weather History & Observations

Time (CST) Temp. Windchill Dew Point Humidity Pressure Visibility Wind Dir Wind Speed Gust Speed Precip Events Conditions
12:15 AM 45.7 °F - 31.1 °F 57% 30.05 in 10.0 mi Calm Calm - N/A   Clear
12:35 AM 45.5 °F - 31.5 °F 58% 30.05 in 10.0 mi Calm Calm - N/A   Clear
12:55 AM 45.5 °F 42.5 °F 31.8 °F 59% 30.04 in 10.0 mi South 5.8 mph - N/A   Clear
1:15 AM 45.0 °F - 32.0 °F 60% 30.03 in 10.0 mi Calm Calm - N/A   Clear
1:55 AM 45.5 °F 43.2 °F 32.0 °F 59% 30.02 in 10.0 mi South 4.6 mph - N/A   Clear
2:15 AM 45.7 °F - 32.0 °F 59% 30.02 in 10.0 mi Calm Calm - N/A   Clear
2:35 AM 45.7 °F - 32.4 °F 60% 30.01 in 10.0 mi Calm Calm - N/A   Clear
2:55 AM 45.5 °F - 32.9 °F 61% 30.01 in 10.0 mi Calm Calm - N/A   Clear
3:15 AM 45.0 °F 41.2 °F 33.4 °F 64% 29.99 in 10.0 mi South 6.9 mph - N/A   Clear
3:35 AM 45.1 °F 42.8 °F 33.8 °F 65% 29.98 in 10.0 mi South 4.6 mph - N/A   Clear
3:55 AM 44.8 °F 41.0 °F 34.0 °F 66% 29.98 in 10.0 mi South 6.9 mph - N/A   Clear
4:15 AM 44.2 °F - 34.7 °F 69% 29.98 in 10.0 mi Calm Calm - N/A   Clear
4:35 AM 44.2 °F 41.8 °F 35.1 °F 70% 29.98 in 10.0 mi South 4.6 mph - N/A   Clear
4:55 AM 45.0 °F 43.5 °F 35.8 °F 70% 29.98 in 10.0 mi SSE 3.5 mph - N/A   Clear
5:15 AM 45.0 °F 41.8 °F 36.0 °F 71% 29.98 in 10.0 mi SSE 5.8 mph - N/A   Clear
5:35 AM 44.6 °F 43.1 °F 36.1 °F 72% 29.97 in 10.0 mi SSE 3.5 mph - N/A   Clear
6:15 AM 44.6 °F - 37.4 °F 76% 29.96 in 10.0 mi Calm Calm - N/A   Clear
6:35 AM 44.6 °F - 37.8 °F 77% 29.97 in 10.0 mi Calm Calm - N/A   Clear
6:55 AM 44.6 °F - 38.1 °F 78% 29.97 in 10.0 mi Calm Calm - N/A   Clear
7:15 AM 45.7 °F - 38.8 °F 77% 29.97 in 10.0 mi Calm Calm - N/A   Clear
7:55 AM 49.1 °F - 40.5 °F 72% 29.97 in 10.0 mi SSE 4.6 mph - N/A   Clear
8:15 AM 50.9 °F - 41.5 °F 70% 29.97 in 10.0 mi SSE 4.6 mph - N/A   Clear
8:35 AM 54.3 °F - 43.2 °F 66% 29.97 in 10.0 mi South 10.4 mph 18.4 mph N/A   Clear
8:55 AM 55.8 °F - 44.4 °F 66% 29.95 in 10.0 mi South 12.7 mph 19.6 mph N/A   Clear
9:15 AM 57.4 °F - 45.5 °F 65% 29.95 in 10.0 mi South 12.7 mph 23.0 mph N/A   Clear
9:35 AM 59.4 °F - 46.0 °F 61% 29.94 in 10.0 mi South 12.7 mph 21.9 mph N/A   Clear
9:55 AM 60.8 °F - 46.6 °F 59% 29.93 in 10.0 mi South 17.3 mph 24.2 mph N/A   Clear
10:15 AM 61.9 °F - 47.3 °F 59% 29.91 in 10.0 mi South 20.7 mph 27.6 mph N/A   Clear
10:35 AM 63.5 °F - 47.8 °F 57% 29.91 in 10.0 mi South 15.0 mph 28.8 mph N/A   Clear
10:55 AM 63.9 °F - 48.2 °F 57% 29.89 in 10.0 mi South 18.4 mph 27.6 mph N/A   Clear
11:15 AM 65.7 °F - 48.7 °F 54% 29.87 in 10.0 mi SSW 15.0 mph 26.5 mph N/A   Clear
11:35 AM 66.4 °F - 48.4 °F 52% 29.87 in 10.0 mi South 19.6 mph 32.2 mph N/A   Clear
11:55 AM 67.1 °F - 48.7 °F 52% 29.86 in 10.0 mi South 23.0 mph 32.2 mph N/A   Clear
12:15 PM 66.9 °F - 49.1 °F 53% 29.85 in 10.0 mi South 19.6 mph 29.9 mph N/A   Clear
12:35 PM 67.6 °F - 49.1 °F 51% 29.84 in 10.0 mi South 19.6 mph 29.9 mph N/A   Clear
12:55 PM 70.0 °F - 49.6 °F 48% 29.83 in 10.0 mi South 18.4 mph 26.5 mph N/A   Clear
1:15 PM 72.0 °F - 50.0 °F 46% 29.82 in 10.0 mi South 17.3 mph 27.6 mph N/A   Clear
1:35 PM 74.5 °F - 49.3 °F 41% 29.79 in 10.0 mi South 18.4 mph 31.1 mph N/A   Clear
1:55 PM 74.3 °F - 49.8 °F 42% 29.79 in 10.0 mi South 16.1 mph 29.9 mph N/A   Clear
2:15 PM 75.4 °F - 50.2 °F 41% 29.79 in 10.0 mi South 19.6 mph 31.1 mph N/A   Scattered Clouds
2:35 PM 73.0 °F - 50.0 °F 44% 29.79 in 10.0 mi South 17.3 mph 27.6 mph N/A   Scattered Clouds
2:55 PM 75.7 °F - 50.7 °F 41% 29.77 in 10.0 mi South 17.3 mph 25.3 mph N/A   Scattered Clouds
3:15 PM 75.4 °F - 50.5 °F 42% 29.77 in 10.0 mi South 16.1 mph 21.9 mph N/A   Scattered Clouds
3:35 PM 75.7 °F - 49.6 °F 40% 29.75 in 10.0 mi South 19.6 mph 25.3 mph N/A   Scattered Clouds
3:55 PM 74.7 °F - 49.6 °F 41% 29.76 in 10.0 mi South 11.5 mph 29.9 mph N/A   Scattered Clouds
4:15 PM 74.3 °F - 49.8 °F 42% 29.76 in 10.0 mi South 17.3 mph 28.8 mph N/A   Scattered Clouds
4:35 PM 74.1 °F - 50.4 °F 43% 29.75 in 10.0 mi South 12.7 mph 24.2 mph N/A   Scattered Clouds
4:55 PM 73.6 °F - 50.9 °F 45% 29.76 in 10.0 mi South 12.7 mph 25.3 mph N/A   Scattered Clouds
5:35 PM 72.1 °F - 51.3 °F 48% 29.76 in 10.0 mi South 13.8 mph 20.7 mph N/A   Scattered Clouds
5:55 PM 71.6 °F - 51.6 °F 49% 29.76 in 10.0 mi South 10.4 mph 25.3 mph N/A   Clear
6:15 PM 70.7 °F - 51.8 °F 51% 29.76 in 10.0 mi South 10.4 mph 20.7 mph N/A   Clear
6:35 PM 70.0 °F - 52.0 °F 53% 29.77 in 10.0 mi South 12.7 mph 23.0 mph N/A   Clear
6:55 PM 69.4 °F - 52.3 °F 54% 29.77 in 10.0 mi South 17.3 mph 21.9 mph N/A   Clear
7:15 PM 68.9 °F - 52.7 °F 56% 29.78 in 10.0 mi South 6.9 mph 16.1 mph N/A   Clear
7:35 PM 67.3 °F - 52.9 °F 60% 29.79 in 10.0 mi Calm Calm - N/A   Scattered Clouds
7:55 PM 67.1 °F - 53.2 °F 61% 29.79 in 10.0 mi South 5.8 mph - N/A   Overcast
8:35 PM 67.5 °F - 53.8 °F 61% 29.80 in 10.0 mi Calm Calm - N/A   Overcast
8:55 PM 66.7 °F - 54.3 °F 64% 29.81 in 10.0 mi South 6.9 mph - N/A   Overcast
9:15 PM 66.4 °F - 54.5 °F 66% 29.82 in 10.0 mi South 6.9 mph - N/A   Overcast
9:35 PM 66.2 °F - 55.0 °F 67% 29.82 in 10.0 mi South 6.9 mph - N/A   Mostly Cloudy
9:55 PM 66.2 °F - 55.4 °F 68% 29.82 in 10.0 mi South 8.1 mph - N/A   Mostly Cloudy
10:15 PM 66.2 °F - 55.6 °F 69% 29.82 in 10.0 mi South 9.2 mph - N/A   Mostly Cloudy
10:55 PM 66.7 °F - 56.3 °F 69% 29.82 in 10.0 mi South 11.5 mph 17.3 mph N/A   Overcast
11:15 PM 66.9 °F - 56.7 °F 70% 29.82 in 10.0 mi South 11.5 mph 19.6 mph N/A   Overcast
11:35 PM 66.9 °F - 56.8 °F 70% 29.82 in 10.0 mi South 10.4 mph 17.3 mph N/A   Overcast
11:55 PM 66.9 °F - 57.2 °F 71% 29.82 in 10.0 mi South 10.4 mph 16.1 mph N/A   Overcast